Year,Month,Day,Hour,Minute,Value (Times are PST for insolation in W/m^2)
2012,08,09,00,00,0.00
2012,08,09,00,01,0.00
2012,08,09,00,02,0.00
2012,08,09,00,03,0.00
2012,08,09,00,04,0.00
2012,08,09,00,05,0.00
2012,08,09,00,06,0.00
2012,08,09,00,07,0.00
2012,08,09,00,08,0.00
2012,08,09,00,09,0.00
2012,08,09,00,10,0.00
2012,08,09,00,11,0.00
2012,08,09,00,12,0.00
2012,08,09,00,13,0.00
2012,08,09,00,14,0.00
2012,08,09,00,15,0.00
2012,08,09,00,16,0.00
2012,08,09,00,17,0.00
2012,08,09,00,18,0.00
2012,08,09,00,19,0.00
2012,08,09,00,20,0.00
2012,08,09,00,21,0.00
2012,08,09,00,22,0.00
2012,08,09,00,23,0.00
2012,08,09,00,24,0.00
2012,08,09,00,25,0.00
2012,08,09,00,26,0.00
2012,08,09,00,27,0.00
2012,08,09,00,28,0.00
2012,08,09,00,29,0.00
2012,08,09,00,30,0.00
2012,08,09,00,31,0.00
2012,08,09,00,32,0.00
2012,08,09,00,33,0.00
2012,08,09,00,34,0.00
2012,08,09,00,35,0.00
2012,08,09,00,36,0.00
2012,08,09,00,37,0.00
2012,08,09,00,38,0.00
2012,08,09,00,39,0.00
2012,08,09,00,40,0.00
2012,08,09,00,41,0.00
2012,08,09,00,42,0.00
2012,08,09,00,43,0.00
2012,08,09,00,44,0.00
2012,08,09,00,45,0.00
2012,08,09,00,46,0.00
2012,08,09,00,47,0.00
2012,08,09,00,48,0.00
2012,08,09,00,49,0.00
2012,08,09,00,50,0.00
2012,08,09,00,51,0.00
2012,08,09,00,52,0.00
2012,08,09,00,53,0.00
2012,08,09,00,54,0.00
2012,08,09,00,55,0.00
2012,08,09,00,56,0.00
2012,08,09,00,57,0.00
2012,08,09,00,58,0.00
2012,08,09,00,59,0.00
2012,08,09,01,00,0.00
2012,08,09,01,01,0.00
2012,08,09,01,02,0.00
2012,08,09,01,03,0.00
2012,08,09,01,04,0.00
2012,08,09,01,05,0.00
2012,08,09,01,06,0.00
2012,08,09,01,07,0.00
2012,08,09,01,08,0.00
2012,08,09,01,09,0.00
2012,08,09,01,10,0.00
2012,08,09,01,11,0.00
2012,08,09,01,12,0.00
2012,08,09,01,13,0.00
2012,08,09,01,14,0.00
2012,08,09,01,15,0.00
2012,08,09,01,16,0.00
2012,08,09,01,17,0.00
2012,08,09,01,18,0.00
2012,08,09,01,19,0.00
2012,08,09,01,20,0.00
2012,08,09,01,21,0.00
2012,08,09,01,22,0.00
2012,08,09,01,23,0.00
2012,08,09,01,24,0.00
2012,08,09,01,25,0.00
2012,08,09,01,26,0.00
2012,08,09,01,27,0.00
2012,08,09,01,28,0.00
2012,08,09,01,29,0.00
2012,08,09,01,30,0.00
2012,08,09,01,31,0.00
2012,08,09,01,32,0.00
2012,08,09,01,33,0.00
2012,08,09,01,34,0.00
2012,08,09,01,35,0.00
2012,08,09,01,36,0.00
2012,08,09,01,37,0.00
2012,08,09,01,38,0.00
2012,08,09,01,39,0.00
2012,08,09,01,40,0.00
2012,08,09,01,41,0.00
2012,08,09,01,42,0.00
2012,08,09,01,43,0.00
2012,08,09,01,44,0.00
2012,08,09,01,45,0.00
2012,08,09,01,46,0.00
2012,08,09,01,47,0.00
2012,08,09,01,48,0.00
2012,08,09,01,49,0.00
2012,08,09,01,50,0.00
2012,08,09,01,51,0.00
2012,08,09,01,52,0.00
2012,08,09,01,53,0.00
2012,08,09,01,54,0.00
2012,08,09,01,55,0.00
2012,08,09,01,56,0.00
2012,08,09,01,57,0.00
2012,08,09,01,58,0.00
2012,08,09,01,59,0.00
2012,08,09,02,00,0.00
2012,08,09,02,01,0.00
2012,08,09,02,02,0.00
2012,08,09,02,03,0.00
2012,08,09,02,04,0.00
2012,08,09,02,05,0.00
2012,08,09,02,06,0.00
2012,08,09,02,07,0.00
2012,08,09,02,08,0.00
2012,08,09,02,09,0.00
2012,08,09,02,10,0.00
2012,08,09,02,11,0.00
2012,08,09,02,12,0.00
2012,08,09,02,13,0.00
2012,08,09,02,14,0.00
2012,08,09,02,15,0.00
2012,08,09,02,16,0.00
2012,08,09,02,17,0.00
2012,08,09,02,18,0.00
2012,08,09,02,19,0.00
2012,08,09,02,20,0.00
2012,08,09,02,21,0.00
2012,08,09,02,22,0.00
2012,08,09,02,23,0.00
2012,08,09,02,24,0.00
2012,08,09,02,25,0.00
2012,08,09,02,26,0.00
2012,08,09,02,27,0.00
2012,08,09,02,28,0.00
2012,08,09,02,29,0.00
2012,08,09,02,30,0.00
2012,08,09,02,31,0.00
2012,08,09,02,32,0.00
2012,08,09,02,33,0.00
2012,08,09,02,34,0.00
2012,08,09,02,35,0.00
2012,08,09,02,36,0.00
2012,08,09,02,37,0.00
2012,08,09,02,38,0.00
2012,08,09,02,39,0.00
2012,08,09,02,40,0.00
2012,08,09,02,41,0.00
2012,08,09,02,42,0.00
2012,08,09,02,43,0.00
2012,08,09,02,44,0.00
2012,08,09,02,45,0.00
2012,08,09,02,46,0.00
2012,08,09,02,47,0.00
2012,08,09,02,48,0.00
2012,08,09,02,49,0.00
2012,08,09,02,50,0.00
2012,08,09,02,51,0.00
2012,08,09,02,52,0.00
2012,08,09,02,53,0.00
2012,08,09,02,54,0.00
2012,08,09,02,55,0.00
2012,08,09,02,56,0.00
2012,08,09,02,57,0.00
2012,08,09,02,58,0.00
2012,08,09,02,59,0.00
2012,08,09,03,00,0.00
2012,08,09,03,01,0.00
2012,08,09,03,02,0.00
2012,08,09,03,03,0.00
2012,08,09,03,04,0.00
2012,08,09,03,05,0.00
2012,08,09,03,06,0.00
2012,08,09,03,07,0.00
2012,08,09,03,08,0.00
2012,08,09,03,09,0.00
2012,08,09,03,10,0.00
2012,08,09,03,11,0.00
2012,08,09,03,12,0.00
2012,08,09,03,13,0.00
2012,08,09,03,14,0.00
2012,08,09,03,15,0.00
2012,08,09,03,16,0.00
2012,08,09,03,17,0.00
2012,08,09,03,18,0.00
2012,08,09,03,19,0.00
2012,08,09,03,20,0.00
2012,08,09,03,21,0.00
2012,08,09,03,22,0.00
2012,08,09,03,23,0.00
2012,08,09,03,24,0.00
2012,08,09,03,25,0.00
2012,08,09,03,26,0.00
2012,08,09,03,27,0.00
2012,08,09,03,28,0.00
2012,08,09,03,29,0.00
2012,08,09,03,30,0.00
2012,08,09,03,31,0.00
2012,08,09,03,32,0.00
2012,08,09,03,33,0.00
2012,08,09,03,34,0.00
2012,08,09,03,35,0.00
2012,08,09,03,36,0.00
2012,08,09,03,37,0.00
2012,08,09,03,38,0.00
2012,08,09,03,39,0.00
2012,08,09,03,40,0.00
2012,08,09,03,41,0.00
2012,08,09,03,42,0.00
2012,08,09,03,43,0.00
2012,08,09,03,44,0.00
2012,08,09,03,45,0.00
2012,08,09,03,46,0.00
2012,08,09,03,47,0.00
2012,08,09,03,48,0.00
2012,08,09,03,49,0.00
2012,08,09,03,50,0.00
2012,08,09,03,51,0.00
2012,08,09,03,52,0.00
2012,08,09,03,53,0.00
2012,08,09,03,54,0.00
2012,08,09,03,55,0.00
2012,08,09,03,56,0.00
2012,08,09,03,57,0.00
2012,08,09,03,58,0.00
2012,08,09,03,59,0.00
2012,08,09,04,00,0.00
2012,08,09,04,01,0.00
2012,08,09,04,02,0.00
2012,08,09,04,03,0.00
2012,08,09,04,04,0.00
2012,08,09,04,05,0.00
2012,08,09,04,06,0.00
2012,08,09,04,07,0.00
2012,08,09,04,08,0.00
2012,08,09,04,09,0.00
2012,08,09,04,10,0.00
2012,08,09,04,11,0.00
2012,08,09,04,12,0.00
2012,08,09,04,13,0.00
2012,08,09,04,14,0.00
2012,08,09,04,15,0.00
2012,08,09,04,16,0.00
2012,08,09,04,17,0.00
2012,08,09,04,18,0.00
2012,08,09,04,19,0.00
2012,08,09,04,20,0.00
2012,08,09,04,21,0.00
2012,08,09,04,22,0.00
2012,08,09,04,23,0.00
2012,08,09,04,24,0.00
2012,08,09,04,25,0.00
2012,08,09,04,26,0.00
2012,08,09,04,27,0.00
2012,08,09,04,28,0.00
2012,08,09,04,29,0.00
2012,08,09,04,30,0.00
2012,08,09,04,31,0.00
2012,08,09,04,32,0.00
2012,08,09,04,33,0.00
2012,08,09,04,34,0.00
2012,08,09,04,35,0.00
2012,08,09,04,36,0.00
2012,08,09,04,37,0.00
2012,08,09,04,38,0.00
2012,08,09,04,39,0.00
2012,08,09,04,40,0.00
2012,08,09,04,41,0.00
2012,08,09,04,42,0.00
2012,08,09,04,43,0.00
2012,08,09,04,44,0.00
2012,08,09,04,45,0.00
2012,08,09,04,46,0.00
2012,08,09,04,47,0.00
2012,08,09,04,48,0.00
2012,08,09,04,49,0.00
2012,08,09,04,50,0.00
2012,08,09,04,51,0.00
2012,08,09,04,52,0.00
2012,08,09,04,53,0.00
2012,08,09,04,54,0.00
2012,08,09,04,55,0.00
2012,08,09,04,56,0.00
2012,08,09,04,57,0.00
2012,08,09,04,58,0.00
2012,08,09,04,59,0.00
2012,08,09,05,00,0.00
2012,08,09,05,01,0.00
2012,08,09,05,02,0.00
2012,08,09,05,03,0.00
2012,08,09,05,04,0.00
2012,08,09,05,05,0.00
2012,08,09,05,06,0.00
2012,08,09,05,07,0.00
2012,08,09,05,08,0.00
2012,08,09,05,09,0.00
2012,08,09,05,10,0.00
2012,08,09,05,11,0.00
2012,08,09,05,12,0.00
2012,08,09,05,13,0.00
2012,08,09,05,14,0.00
2012,08,09,05,15,0.00
2012,08,09,05,16,0.00
2012,08,09,05,17,0.00
2012,08,09,05,18,0.00
2012,08,09,05,19,0.00
2012,08,09,05,20,0.00
2012,08,09,05,21,0.00
2012,08,09,05,22,0.00
2012,08,09,05,23,0.00
2012,08,09,05,24,0.00
2012,08,09,05,25,0.00
2012,08,09,05,26,0.00
2012,08,09,05,27,0.00
2012,08,09,05,28,0.00
2012,08,09,05,29,0.00
2012,08,09,05,30,0.00
2012,08,09,05,31,0.00
2012,08,09,05,32,0.00
2012,08,09,05,33,0.00
2012,08,09,05,34,0.00
2012,08,09,05,35,0.00
2012,08,09,05,36,0.00
2012,08,09,05,37,0.00
2012,08,09,05,38,0.00
2012,08,09,05,39,0.00
2012,08,09,05,40,0.00
2012,08,09,05,41,0.00
2012,08,09,05,42,0.00
2012,08,09,05,43,0.00
2012,08,09,05,44,0.00
2012,08,09,05,45,0.00
2012,08,09,05,46,0.00
2012,08,09,05,47,0.00
2012,08,09,05,48,0.00
2012,08,09,05,49,0.00
2012,08,09,05,50,0.00
2012,08,09,05,51,0.00
2012,08,09,05,52,0.00
2012,08,09,05,53,0.00
2012,08,09,05,54,0.00
2012,08,09,05,55,0.00
2012,08,09,05,56,0.00
2012,08,09,05,57,0.00
2012,08,09,05,58,0.00
2012,08,09,05,59,0.00
2012,08,09,06,00,0.00
2012,08,09,06,01,3.40
2012,08,09,06,02,5.00
2012,08,09,06,03,5.00
2012,08,09,06,04,5.00
2012,08,09,06,05,5.80
2012,08,09,06,06,7.00
2012,08,09,06,07,7.00
2012,08,09,06,08,7.10
2012,08,09,06,09,9.00
2012,08,09,06,10,9.00
2012,08,09,06,11,9.00
2012,08,09,06,12,10.10
2012,08,09,06,13,11.00
2012,08,09,06,14,11.00
2012,08,09,06,15,11.20
2012,08,09,06,16,12.00
2012,08,09,06,17,12.00
2012,08,09,06,18,12.00
2012,08,09,06,19,13.50
2012,08,09,06,20,14.00
2012,08,09,06,21,14.00
2012,08,09,06,22,14.00
2012,08,09,06,23,15.00
2012,08,09,06,24,16.00
2012,08,09,06,25,16.00
2012,08,09,06,26,17.80
2012,08,09,06,27,18.00
2012,08,09,06,28,18.00
2012,08,09,06,29,19.50
2012,08,09,06,30,22.30
2012,08,09,06,31,21.40
2012,08,09,06,32,21.20
2012,08,09,06,33,23.50
2012,08,09,06,34,26.20
2012,08,09,06,35,33.50
2012,08,09,06,36,42.50
2012,08,09,06,37,42.40
2012,08,09,06,38,38.60
2012,08,09,06,39,36.30
2012,08,09,06,40,43.50
2012,08,09,06,41,49.00
2012,08,09,06,42,58.20
2012,08,09,06,43,62.90
2012,08,09,06,44,65.30
2012,08,09,06,45,67.50
2012,08,09,06,46,69.40
2012,08,09,06,47,71.10
2012,08,09,06,48,74.80
2012,08,09,06,49,76.90
2012,08,09,06,50,79.30
2012,08,09,06,51,81.60
2012,08,09,06,52,83.50
2012,08,09,06,53,85.20
2012,08,09,06,54,87.50
2012,08,09,06,55,89.90
2012,08,09,06,56,93.30
2012,08,09,06,57,95.00
2012,08,09,06,58,95.00
2012,08,09,06,59,96.20
2012,08,09,07,00,99.20
2012,08,09,07,01,104.00
2012,08,09,07,02,109.40
2012,08,09,07,03,112.00
2012,08,09,07,04,113.50
2012,08,09,07,05,111.70
2012,08,09,07,06,112.50
2012,08,09,07,07,114.40
2012,08,09,07,08,121.10
2012,08,09,07,09,125.80
2012,08,09,07,10,128.60
2012,08,09,07,11,130.00
2012,08,09,07,12,131.70
2012,08,09,07,13,135.00
2012,08,09,07,14,137.50
2012,08,09,07,15,139.80
2012,08,09,07,16,141.50
2012,08,09,07,17,143.30
2012,08,09,07,18,145.70
2012,08,09,07,19,148.30
2012,08,09,07,20,151.50
2012,08,09,07,21,153.90
2012,08,09,07,22,155.60
2012,08,09,07,23,157.40
2012,08,09,07,24,159.70
2012,08,09,07,25,160.70
2012,08,09,07,26,165.50
2012,08,09,07,27,167.80
2012,08,09,07,28,170.20
2012,08,09,07,29,171.70
2012,08,09,07,30,173.70
2012,08,09,07,31,176.30
2012,08,09,07,32,178.30
2012,08,09,07,33,179.80
2012,08,09,07,34,183.30
2012,08,09,07,35,185.70
2012,08,09,07,36,187.80
2012,08,09,07,37,190.30
2012,08,09,07,38,192.90
2012,08,09,07,39,195.90
2012,08,09,07,40,198.20
2012,08,09,07,41,199.00
2012,08,09,07,42,203.70
2012,08,09,07,43,206.20
2012,08,09,07,44,207.70
2012,08,09,07,45,210.90
2012,08,09,07,46,213.60
2012,08,09,07,47,215.60
2012,08,09,07,48,219.80
2012,08,09,07,49,221.90
2012,08,09,07,50,225.80
2012,08,09,07,51,228.00
2012,08,09,07,52,231.00
2012,08,09,07,53,233.60
2012,08,09,07,54,236.00
2012,08,09,07,55,237.50
2012,08,09,07,56,239.80
2012,08,09,07,57,242.60
2012,08,09,07,58,245.30
2012,08,09,07,59,247.70
2012,08,09,08,00,251.10
2012,08,09,08,01,253.50
2012,08,09,08,02,256.20
2012,08,09,08,03,259.10
2012,08,09,08,04,261.40
2012,08,09,08,05,262.00
2012,08,09,08,06,267.30
2012,08,09,08,07,269.80
2012,08,09,08,08,272.00
2012,08,09,08,09,273.20
2012,08,09,08,10,275.50
2012,08,09,08,11,278.60
2012,08,09,08,12,281.30
2012,08,09,08,13,283.60
2012,08,09,08,14,286.30
2012,08,09,08,15,289.20
2012,08,09,08,16,291.50
2012,08,09,08,17,293.90
2012,08,09,08,18,297.30
2012,08,09,08,19,299.50
2012,08,09,08,20,302.40
2012,08,09,08,21,305.20
2012,08,09,08,22,308.20
2012,08,09,08,23,310.90
2012,08,09,08,24,313.40
2012,08,09,08,25,316.00
2012,08,09,08,26,318.00
2012,08,09,08,27,321.00
2012,08,09,08,28,324.50
2012,08,09,08,29,328.70
2012,08,09,08,30,330.40
2012,08,09,08,31,333.50
2012,08,09,08,32,337.00
2012,08,09,08,33,340.00
2012,08,09,08,34,342.60
2012,08,09,08,35,345.20
2012,08,09,08,36,348.50
2012,08,09,08,37,351.10
2012,08,09,08,38,354.00
2012,08,09,08,39,357.80
2012,08,09,08,40,359.00
2012,08,09,08,41,362.10
2012,08,09,08,42,364.70
2012,08,09,08,43,367.80
2012,08,09,08,44,371.10
2012,08,09,08,45,375.10
2012,08,09,08,46,377.70
2012,08,09,08,47,380.50
2012,08,09,08,48,383.60
2012,08,09,08,49,386.20
2012,08,09,08,50,389.20
2012,08,09,08,51,393.00
2012,08,09,08,52,395.70
2012,08,09,08,53,397.30
2012,08,09,08,54,399.60
2012,08,09,08,55,401.90
2012,08,09,08,56,404.80
2012,08,09,08,57,407.50
2012,08,09,08,58,409.80
2012,08,09,08,59,413.70
2012,08,09,09,00,417.30
2012,08,09,09,01,419.00
2012,08,09,09,02,421.20
2012,08,09,09,03,423.60
2012,08,09,09,04,425.10
2012,08,09,09,05,429.40
2012,08,09,09,06,431.30
2012,08,09,09,07,433.90
2012,08,09,09,08,436.00
2012,08,09,09,09,438.30
2012,08,09,09,10,441.20
2012,08,09,09,11,445.20
2012,08,09,09,12,446.80
2012,08,09,09,13,450.10
2012,08,09,09,14,453.20
2012,08,09,09,15,454.70
2012,08,09,09,16,457.30
2012,08,09,09,17,461.70
2012,08,09,09,18,464.00
2012,08,09,09,19,466.10
2012,08,09,09,20,470.00
2012,08,09,09,21,474.30
2012,08,09,09,22,476.30
2012,08,09,09,23,480.50
2012,08,09,09,24,482.40
2012,08,09,09,25,484.10
2012,08,09,09,26,487.70
2012,08,09,09,27,489.80
2012,08,09,09,28,492.30
2012,08,09,09,29,494.90
2012,08,09,09,30,498.70
2012,08,09,09,31,502.10
2012,08,09,09,32,505.00
2012,08,09,09,33,507.70
2012,08,09,09,34,505.40
2012,08,09,09,35,487.40
2012,08,09,09,36,479.30
2012,08,09,09,37,469.50
2012,08,09,09,38,474.70
2012,08,09,09,39,467.60
2012,08,09,09,40,523.80
2012,08,09,09,41,533.00
2012,08,09,09,42,535.30
2012,08,09,09,43,539.80
2012,08,09,09,44,543.90
2012,08,09,09,45,547.70
2012,08,09,09,46,550.90
2012,08,09,09,47,554.00
2012,08,09,09,48,554.50
2012,08,09,09,49,556.30
2012,08,09,09,50,557.00
2012,08,09,09,51,557.40
2012,08,09,09,52,561.50
2012,08,09,09,53,564.00
2012,08,09,09,54,566.00
2012,08,09,09,55,568.50
2012,08,09,09,56,570.70
2012,08,09,09,57,573.10
2012,08,09,09,58,576.20
2012,08,09,09,59,581.60
2012,08,09,10,00,584.00
2012,08,09,10,01,584.70
2012,08,09,10,02,586.60
2012,08,09,10,03,589.60
2012,08,09,10,04,596.50
2012,08,09,10,05,603.00
2012,08,09,10,06,604.10
2012,08,09,10,07,607.10
2012,08,09,10,08,609.70
2012,08,09,10,09,614.20
2012,08,09,10,10,622.60
2012,08,09,10,11,629.00
2012,08,09,10,12,634.80
2012,08,09,10,13,640.40
2012,08,09,10,14,647.80
2012,08,09,10,15,655.20
2012,08,09,10,16,653.40
2012,08,09,10,17,652.80
2012,08,09,10,18,686.00
2012,08,09,10,19,661.00
2012,08,09,10,20,703.70
2012,08,09,10,21,715.00
2012,08,09,10,22,715.00
2012,08,09,10,23,483.00
2012,08,09,10,24,267.70
2012,08,09,10,25,274.80
2012,08,09,10,26,277.00
2012,08,09,10,27,288.70
2012,08,09,10,28,348.00
2012,08,09,10,29,436.70
2012,08,09,10,30,468.00
2012,08,09,10,31,468.00
2012,08,09,10,32,393.40
2012,08,09,10,33,434.60
2012,08,09,10,34,423.50
2012,08,09,10,35,518.80
2012,08,09,10,36,549.90
2012,08,09,10,37,545.00
2012,08,09,10,38,347.70
2012,08,09,10,39,320.70
2012,08,09,10,40,358.20
2012,08,09,10,41,427.00
2012,08,09,10,42,389.90
2012,08,09,10,43,347.60
2012,08,09,10,44,346.00
2012,08,09,10,45,337.80
2012,08,09,10,46,314.80
2012,08,09,10,47,314.10
2012,08,09,10,48,315.70
2012,08,09,10,49,316.00
2012,08,09,10,50,327.90
2012,08,09,10,51,360.60
2012,08,09,10,52,339.00
2012,08,09,10,53,326.00
2012,08,09,10,54,298.50
2012,08,09,10,55,268.70
2012,08,09,10,56,250.30
2012,08,09,10,57,245.40
2012,08,09,10,58,239.50
2012,08,09,10,59,228.90
2012,08,09,11,00,225.00
2012,08,09,11,01,225.00
2012,08,09,11,02,345.40
2012,08,09,11,03,779.40
2012,08,09,11,04,783.80
2012,08,09,11,05,795.60
2012,08,09,11,06,812.20
2012,08,09,11,07,837.70
2012,08,09,11,08,861.30
2012,08,09,11,09,877.30
2012,08,09,11,10,875.50
2012,08,09,11,11,828.30
2012,08,09,11,12,854.00
2012,08,09,11,13,887.10
2012,08,09,11,14,892.80
2012,08,09,11,15,879.10
2012,08,09,11,16,896.40
2012,08,09,11,17,918.70
2012,08,09,11,18,933.30
2012,08,09,11,19,954.20
2012,08,09,11,20,962.40
2012,08,09,11,21,910.50
2012,08,09,11,22,891.00
2012,08,09,11,23,968.20
2012,08,09,11,24,1012.00
2012,08,09,11,25,980.30
2012,08,09,11,26,1009.00
2012,08,09,11,27,1009.00
2012,08,09,11,28,786.50
2012,08,09,11,29,564.00
2012,08,09,11,30,425.80
2012,08,09,11,31,392.60
2012,08,09,11,32,396.00
2012,08,09,11,33,371.30
2012,08,09,11,34,371.80
2012,08,09,11,35,371.90
2012,08,09,11,36,367.50
2012,08,09,11,37,348.10
2012,08,09,11,38,334.00
2012,08,09,11,39,327.20
2012,08,09,11,40,326.20
2012,08,09,11,41,332.10
2012,08,09,11,42,343.50
2012,08,09,11,43,378.70
2012,08,09,11,44,370.10
2012,08,09,11,45,372.70
2012,08,09,11,46,364.90
2012,08,09,11,47,356.80
2012,08,09,11,48,345.90
2012,08,09,11,49,333.30
2012,08,09,11,50,316.40
2012,08,09,11,51,293.50
2012,08,09,11,52,287.30
2012,08,09,11,53,290.00
2012,08,09,11,54,290.00
2012,08,09,11,55,431.70
2012,08,09,11,56,979.80
2012,08,09,11,57,1017.90
2012,08,09,11,58,1056.10
2012,08,09,11,59,1067.00
2012,08,09,12,00,1018.10
2012,08,09,12,01,1016.00
2012,08,09,12,02,789.00
2012,08,09,12,03,436.00
2012,08,09,12,04,411.70
2012,08,09,12,05,408.80
2012,08,09,12,06,411.00
2012,08,09,12,07,411.00
2012,08,09,12,08,395.30
2012,08,09,12,09,371.00
2012,08,09,12,10,394.00
2012,08,09,12,11,480.50
2012,08,09,12,12,401.80
2012,08,09,12,13,381.00
2012,08,09,12,14,381.00
2012,08,09,12,15,381.00
2012,08,09,12,16,381.00
2012,08,09,12,17,408.00
2012,08,09,12,18,1003.20
2012,08,09,12,19,982.80
2012,08,09,12,20,919.00
2012,08,09,12,21,919.00
2012,08,09,12,22,1012.70
2012,08,09,12,23,1053.10
2012,08,09,12,24,1063.00
2012,08,09,12,25,1056.40
2012,08,09,12,26,1029.20
2012,08,09,12,27,1013.00
2012,08,09,12,28,1013.00
2012,08,09,12,29,1008.60
2012,08,09,12,30,909.80
2012,08,09,12,31,900.70
2012,08,09,12,32,897.00
2012,08,09,12,33,892.70
2012,08,09,12,34,885.60
2012,08,09,12,35,882.30
2012,08,09,12,36,881.80
2012,08,09,12,37,882.10
2012,08,09,12,38,886.10
2012,08,09,12,39,890.00
2012,08,09,12,40,888.50
2012,08,09,12,41,891.70
2012,08,09,12,42,899.00
2012,08,09,12,43,903.20
2012,08,09,12,44,907.20
2012,08,09,12,45,917.30
2012,08,09,12,46,936.00
2012,08,09,12,47,939.00
2012,08,09,12,48,945.50
2012,08,09,12,49,954.20
2012,08,09,12,50,939.00
2012,08,09,12,51,939.00
2012,08,09,12,52,910.10
2012,08,09,12,53,898.70
2012,08,09,12,54,886.90
2012,08,09,12,55,897.10
2012,08,09,12,56,898.40
2012,08,09,12,57,903.50
2012,08,09,12,58,912.80
2012,08,09,12,59,911.40
2012,08,09,13,00,921.30
2012,08,09,13,01,939.10
2012,08,09,13,02,944.00
2012,08,09,13,03,944.00
2012,08,09,13,04,920.20
2012,08,09,13,05,916.40
2012,08,09,13,06,922.40
2012,08,09,13,07,917.00
2012,08,09,13,08,929.20
2012,08,09,13,09,936.00
2012,08,09,13,10,943.70
2012,08,09,13,11,950.50
2012,08,09,13,12,950.80
2012,08,09,13,13,954.00
2012,08,09,13,14,969.20
2012,08,09,13,15,985.80
2012,08,09,13,16,979.90
2012,08,09,13,17,976.20
2012,08,09,13,18,965.30
2012,08,09,13,19,949.10
2012,08,09,13,20,951.00
2012,08,09,13,21,951.00
2012,08,09,13,22,1017.90
2012,08,09,13,23,1070.10
2012,08,09,13,24,1093.00
2012,08,09,13,25,1093.00
2012,08,09,13,26,670.30
2012,08,09,13,27,478.80
2012,08,09,13,28,483.00
2012,08,09,13,29,460.60
2012,08,09,13,30,399.50
2012,08,09,13,31,421.00
2012,08,09,13,32,423.60
2012,08,09,13,33,420.90
2012,08,09,13,34,422.00
2012,08,09,13,35,425.70
2012,08,09,13,36,434.00
2012,08,09,13,37,434.00
2012,08,09,13,38,425.50
2012,08,09,13,39,352.90
2012,08,09,13,40,474.70
2012,08,09,13,41,1100.00
2012,08,09,13,42,1100.00
2012,08,09,13,43,1078.70
2012,08,09,13,44,1042.10
2012,08,09,13,45,1034.00
2012,08,09,13,46,902.80
2012,08,09,13,47,972.00
2012,08,09,13,48,972.00
2012,08,09,13,49,966.00
2012,08,09,13,50,947.20
2012,08,09,13,51,937.90
2012,08,09,13,52,947.00
2012,08,09,13,53,942.10
2012,08,09,13,54,933.00
2012,08,09,13,55,905.50
2012,08,09,13,56,889.00
2012,08,09,13,57,886.20
2012,08,09,13,58,854.00
2012,08,09,13,59,854.80
2012,08,09,14,00,857.00
2012,08,09,14,01,858.00
2012,08,09,14,02,854.70
2012,08,09,14,03,853.20
2012,08,09,14,04,853.20
2012,08,09,14,05,850.20
2012,08,09,14,06,850.00
2012,08,09,14,07,848.30
2012,08,09,14,08,846.20
2012,08,09,14,09,818.80
2012,08,09,14,10,841.00
2012,08,09,14,11,839.70
2012,08,09,14,12,839.20
2012,08,09,14,13,840.50
2012,08,09,14,14,843.70
2012,08,09,14,15,842.30
2012,08,09,14,16,843.50
2012,08,09,14,17,842.90
2012,08,09,14,18,842.80
2012,08,09,14,19,843.50
2012,08,09,14,20,838.30
2012,08,09,14,21,837.80
2012,08,09,14,22,835.80
2012,08,09,14,23,832.10
2012,08,09,14,24,830.40
2012,08,09,14,25,827.00
2012,08,09,14,26,821.80
2012,08,09,14,27,824.00
2012,08,09,14,28,823.70
2012,08,09,14,29,822.10
2012,08,09,14,30,819.80
2012,08,09,14,31,820.50
2012,08,09,14,32,819.00
2012,08,09,14,33,815.60
2012,08,09,14,34,814.00
2012,08,09,14,35,814.00
2012,08,09,14,36,815.30
2012,08,09,14,37,812.90
2012,08,09,14,38,814.00
2012,08,09,14,39,814.60
2012,08,09,14,40,809.70
2012,08,09,14,41,804.70
2012,08,09,14,42,803.30
2012,08,09,14,43,806.60
2012,08,09,14,44,805.10
2012,08,09,14,45,803.00
2012,08,09,14,46,802.60
2012,08,09,14,47,802.00
2012,08,09,14,48,802.00
2012,08,09,14,49,800.30
2012,08,09,14,50,799.40
2012,08,09,14,51,795.00
2012,08,09,14,52,795.00
2012,08,09,14,53,793.90
2012,08,09,14,54,793.00
2012,08,09,14,55,794.70
2012,08,09,14,56,791.00
2012,08,09,14,57,790.20
2012,08,09,14,58,787.20
2012,08,09,14,59,782.60
2012,08,09,15,00,780.00
2012,08,09,15,01,779.10
2012,08,09,15,02,777.00
2012,08,09,15,03,777.00
2012,08,09,15,04,776.10
2012,08,09,15,05,775.00
2012,08,09,15,06,773.50
2012,08,09,15,07,774.70
2012,08,09,15,08,771.70
2012,08,09,15,09,770.00
2012,08,09,15,10,768.20
2012,08,09,15,11,766.00
2012,08,09,15,12,763.80
2012,08,09,15,13,763.00
2012,08,09,15,14,762.60
2012,08,09,15,15,760.30
2012,08,09,15,16,759.00
2012,08,09,15,17,758.30
2012,08,09,15,18,758.00
2012,08,09,15,19,756.00
2012,08,09,15,20,753.60
2012,08,09,15,21,750.90
2012,08,09,15,22,750.00
2012,08,09,15,23,751.00
2012,08,09,15,24,747.90
2012,08,09,15,25,746.70
2012,08,09,15,26,743.50
2012,08,09,15,27,741.20
2012,08,09,15,28,740.00
2012,08,09,15,29,738.00
2012,08,09,15,30,735.40
2012,08,09,15,31,737.50
2012,08,09,15,32,734.00
2012,08,09,15,33,731.00
2012,08,09,15,34,730.00
2012,08,09,15,35,728.30
2012,08,09,15,36,726.30
2012,08,09,15,37,723.80
2012,08,09,15,38,721.70
2012,08,09,15,39,721.00
2012,08,09,15,40,718.80
2012,08,09,15,41,715.50
2012,08,09,15,42,714.10
2012,08,09,15,43,711.70
2012,08,09,15,44,710.00
2012,08,09,15,45,710.00
2012,08,09,15,46,708.20
2012,08,09,15,47,705.50
2012,08,09,15,48,704.90
2012,08,09,15,49,702.70
2012,08,09,15,50,701.00
2012,08,09,15,51,699.60
2012,08,09,15,52,696.90
2012,08,09,15,53,694.50
2012,08,09,15,54,693.10
2012,08,09,15,55,692.10
2012,08,09,15,56,689.00
2012,08,09,15,57,690.00
2012,08,09,15,58,688.50
2012,08,09,15,59,686.30
2012,08,09,16,00,684.20
2012,08,09,16,01,683.10
2012,08,09,16,02,679.60
2012,08,09,16,03,678.00
2012,08,09,16,04,677.00
2012,08,09,16,05,675.40
2012,08,09,16,06,671.20
2012,08,09,16,07,671.00
2012,08,09,16,08,669.20
2012,08,09,16,09,666.00
2012,08,09,16,10,664.60
2012,08,09,16,11,664.00
2012,08,09,16,12,660.90
2012,08,09,16,13,658.50
2012,08,09,16,14,655.00
2012,08,09,16,15,650.90
2012,08,09,16,16,649.30
2012,08,09,16,17,649.00
2012,08,09,16,18,648.30
2012,08,09,16,19,644.00
2012,08,09,16,20,642.00
2012,08,09,16,21,640.90
2012,08,09,16,22,638.60
2012,08,09,16,23,636.30
2012,08,09,16,24,634.70
2012,08,09,16,25,632.40
2012,08,09,16,26,629.00
2012,08,09,16,27,624.90
2012,08,09,16,28,622.60
2012,08,09,16,29,620.90
2012,08,09,16,30,617.00
2012,08,09,16,31,616.30
2012,08,09,16,32,614.10
2012,08,09,16,33,612.40
2012,08,09,16,34,609.00
2012,08,09,16,35,606.20
2012,08,09,16,36,605.80
2012,08,09,16,37,603.70
2012,08,09,16,38,600.00
2012,08,09,16,39,599.00
2012,08,09,16,40,596.70
2012,08,09,16,41,591.40
2012,08,09,16,42,589.70
2012,08,09,16,43,585.00
2012,08,09,16,44,583.40
2012,08,09,16,45,580.70
2012,08,09,16,46,578.50
2012,08,09,16,47,576.70
2012,08,09,16,48,572.60
2012,08,09,16,49,570.60
2012,08,09,16,50,568.90
2012,08,09,16,51,568.00
2012,08,09,16,52,566.40
2012,08,09,16,53,562.90
2012,08,09,16,54,560.50
2012,08,09,16,55,558.20
2012,08,09,16,56,555.30
2012,08,09,16,57,552.60
2012,08,09,16,58,550.30
2012,08,09,16,59,548.00
2012,08,09,17,00,548.00
2012,08,09,17,01,546.00
2012,08,09,17,02,541.80
2012,08,09,17,03,540.30
2012,08,09,17,04,536.50
2012,08,09,17,05,535.50
2012,08,09,17,06,532.40
2012,08,09,17,07,531.00